[[{"header":{"parameterUnit":"m.s-1","parameterCategory":1,"la1":30.2991,"la2":30.254,"lo1":-89.0895,"lo2":-89.0444,"dy":0.0017,"dx":0.0017,"nx":28,"ny":28,"refTime":"2025-01-26T03:00:00:Z","depth":0,"parameterNumber":2,"parameterNumberName":"U-component_of_WINDS"},"data":[0,0,0,0,0,0,0,0,0,0,0,0,0,0,0,0,0,0,0,0,0,0,0,0,0,0,0,0,0,0,0,0,0,0,0,0,0,0,0,0,0,0,0,0,0,0,0,0,0,0,0,0,0,0,0,0,0,0,0.4218,0.4218,0,0.4225,0.4225,0.4226,0.4234,0.4235,0.4235,0.4235,0.424,0.424,0.424,0,0,0,0,0,0,0,0,0,0,0,0,0,0.4213,0.4213,0.4218,0.4218,0.4219,0.4225,0.4225,0.4226,0.4234,0.4235,0.4235,0.4235,0.424,0.424,0.424,0,0,0,0,0,0,0,0,0,0,0,0,0,0.4217,0.4213,0.4218,0.4224,0.4224,0.4225,0.4225,0.4226,0.4234,0.4235,0.4235,0.4235,0.424,0.424,0.424,0.4236,0,0,0.424,0.424,0,0,0,0,0,0,0,0,0.4217,0.4217,0.4223,0.4224,0.4224,0.4229,0.4225,0.4229,0.4234,0.4231,0.4235,0.4235,0.4236,0.4237,0.4237,0.4236,0.4236,0.424,0.424,0.424,0.424,0,0,0,0,0,0,0,0.4216,0.4217,0.4221,0.4223,0.4224,0.4226,0.4227,0.4226,0.4232,0.4231,0.4232,0.4232,0.4237,0.4237,0.4238,0.4236,0.424,0.424,0.424,0.424,0.4233,0.4233,0,0,0,0,0,0,0.4215,0.4216,0.4221,0.4221,0.4221,0.4226,0.4227,0.4227,0.4232,0.4233,0.4232,0.4233,0.4237,0.4237,0.4238,0.4234,0.424,0.424,0.424,0.4233,0.4233,0.4233,0,0,0,0,0,0,0.4215,0.4216,0.4221,0.4219,0.422,0.4226,0.4226,0.4227,0.4228,0.4233,0.4234,0.4232,0.4237,0.4238,0.4237,0.4234,0.424,0.424,0.4234,0.4233,0.4233,0.4225,0,0,0,0,0,0,0.4215,0.4215,0.4214,0.4219,0.422,0.4219,0.4226,0.4227,0.4228,0.4229,0.4233,0.4234,0.4238,0.4237,0.4237,0.4234,0.424,0.4234,0.4234,0.4233,0.4225,0.4224,0.4223,0,0,0,0,0,0.4215,0.421,0.4213,0.4214,0.4218,0.4219,0.422,0.4225,0.4228,0.4226,0.423,0.4234,0.4235,0.4236,0.4236,0.4234,0.4234,0.4234,0.4233,0.4226,0.4225,0.4224,0,0,0,0,0,0,0.4203,0.4211,0.4215,0.4212,0.4215,0.4221,0.4218,0.4223,0.4224,0.4225,0.4231,0.4232,0.423,0.4232,0.4234,0.4231,0.4235,0.4235,0.4229,0.4228,0.4227,0.4226,0.424,0,0,0,0,0,0.42,0.4201,0.4208,0.4205,0.4206,0.4212,0.4213,0.4217,0.422,0.4221,0.4224,0.4227,0.4228,0.4228,0.4229,0.4226,0.4228,0.4225,0.4224,0.4223,0.4222,0.4222,0.4221,0.4232,0.4232,0.4232,0,0,0.4194,0.4199,0.4198,0.4202,0.4205,0.4206,0.4213,0.4213,0.4213,0.4221,0.422,0.4223,0.4226,0.4225,0.4224,0.4226,0.422,0.4222,0.4222,0.4221,0.4222,0.4221,0.422,0.4231,0.4232,0.4232,0,0,0.4183,0.4187,0.4185,0.4188,0.4193,0.4198,0.4198,0.4203,0.4206,0.4206,0.4212,0.4213,0.4214,0.4217,0.4218,0.4211,0.4215,0.4212,0.4206,0.4206,0.4205,0.4205,0.4203,0.4202,0.4211,0.4211,0.4211,0,0.4175,0.4176,0.4183,0.4184,0.4186,0.4194,0.4193,0.4195,0.42,0.4201,0.4204,0.4207,0.421,0.421,0.4209,0.4209,0.421,0.4211,0.4205,0.4204,0.4204,0.4202,0.4201,0.4211,0.4211,0.4211,0.4211,0,0.4166,0.4167,0.4165,0.4171,0.4173,0.4172,0.418,0.4181,0.4186,0.419,0.4191,0.4195,0.4198,0.4198,0.4202,0.4199,0.42,0.4204,0.4208,0.4202,0.4201,0.42,0.421,0.421,0.421,0.421,0,0,0.4145,0.4157,0.4157,0.416,0.4167,0.4168,0.4169,0.4173,0.4174,0.4178,0.4178,0.4181,0.4185,0.4187,0.4191,0.4191,0.4187,0.4195,0.4195,0.4194,0.4185,0.4182,0.4181,0.419,0.419,0.419,0.4185,0,0.4136,0.4137,0.4145,0.4145,0.4146,0.4156,0.4156,0.4161,0.4166,0.4168,0.4173,0.4175,0.418,0.4182,0.4182,0.4187,0.4185,0.4188,0.4191,0.4191,0.4189,0.418,0.4176,0.4171,0.4184,0.4184,0.4184,0,0.4124,0.4129,0.4129,0.4138,0.4139,0.4139,0.4145,0.4147,0.4153,0.4156,0.416,0.4166,0.4167,0.4172,0.4175,0.4177,0.4179,0.4182,0.4182,0.4181,0.4186,0.418,0.4169,0.4169,0.4183,0.4183,0.4183,0,0.411,0.4116,0.4117,0.412,0.413,0.4131,0.4135,0.4142,0.4144,0.4149,0.4151,0.4155,0.4158,0.4161,0.4169,0.4171,0.4171,0.4176,0.4174,0.4174,0.4172,0.4172,0.4162,0.4174,0.4174,0.4174,0.4174,0,0.4097,0.4097,0.4111,0.4111,0.4112,0.4121,0.4122,0.4127,0.4133,0.4135,0.4144,0.4145,0.4155,0.4158,0.4164,0.4166,0.4167,0.417,0.4171,0.4169,0.4169,0.417,0.417,0.4174,0.4174,0.4174,0.4174,0,0.408,0.409,0.4092,0.4103,0.4106,0.4105,0.4115,0.4116,0.4123,0.4125,0.4126,0.4136,0.4141,0.4149,0.4155,0.4159,0.416,0.4162,0.4158,0.4159,0.4156,0.4156,0.4146,0.4146,0.4158,0.4158,0.4158,0,0.4072,0.4072,0.4084,0.4086,0.4091,0.4095,0.4098,0.4108,0.4111,0.412,0.412,0.4126,0.413,0.4137,0.4145,0.415,0.4153,0.4149,0.4153,0.4152,0.4153,0.4153,0.4153,0.4148,0.4147,0.4147,0.4147,0,0.4055,0.4061,0.4065,0.4072,0.4077,0.4082,0.4088,0.409,0.4102,0.4105,0.411,0.4114,0.4122,0.4127,0.4134,0.4139,0.4145,0.4146,0.4146,0.4143,0.414,0.4142,0.4155,0.4146,0.4146,0.4146,0.4146,0.4146,0.4042,0.4044,0.4053,0.4058,0.4065,0.4071,0.4073,0.4081,0.4086,0.4093,0.4099,0.4104,0.4113,0.4123,0.4128,0.4132,0.4135,0.4134,0.4134,0.4134,0.4133,0.4141,0.4133,0.4133,0.4133,0.4133,0.4133,0,0.4026,0.4034,0.4039,0.4048,0.4053,0.406,0.4068,0.4071,0.4076,0.4083,0.4089,0.4096,0.4102,0.4111,0.4118,0.412,0.4123,0.4121,0.4121,0.4122,0.413,0.4129,0.4119,0.4119,0.4119,0.4119,0.4119,0.4119,0.4019,0.4022,0.4029,0.4035,0.4042,0.4048,0.4052,0.4058,0.4065,0.4072,0.4078,0.4085,0.4093,0.4101,0.4108,0.411,0.4112,0.411,0.4113,0.412,0.4121,0.4123,0.4122,0.411,0.411,0.4105,0.4105,0.4105]},{"header":{"parameterUnit":"m.s-1","parameterCategory":1,"la1":30.2991,"la2":30.254,"lo1":-89.0895,"lo2":-89.0444,"dy":0.0017,"dx":0.0017,"nx":28,"ny":28,"refTime":"2025-01-26T03:00:00:Z","depth":0,"parameterNumber":3,"parameterNumberName":"V-component_of_WINDS"},"data":[0,0,0,0,0,0,0,0,0,0,0,0,0,0,0,0,0,0,0,0,0,0,0,0,0,0,0,0,0,0,0,0,0,0,0,0,0,0,0,0,0,0,0,0,0,0,0,0,0,0,0,0,0,0,0,0,0,0,-5.1896,-5.1897,0,-5.198,-5.1981,-5.1982,-5.193,-5.1928,-5.1925,-5.1923,-5.2004,-5.2008,-5.2013,0,0,0,0,0,0,0,0,0,0,0,0,0,-5.1687,-5.1691,-5.1896,-5.1897,-5.1898,-5.198,-5.1981,-5.1982,-5.193,-5.1928,-5.1925,-5.1922,-5.2003,-5.2008,-5.2013,0,0,0,0,0,0,0,0,0,0,0,0,0,-5.1775,-5.1692,-5.1895,-5.1882,-5.1882,-5.1979,-5.1981,-5.1982,-5.1931,-5.1927,-5.1924,-5.192,-5.2001,-5.2007,-5.2014,-5.2128,0,0,-5.2034,-5.2037,0,0,0,0,0,0,0,0,-5.177,-5.1782,-5.1883,-5.1883,-5.1883,-5.1941,-5.1937,-5.2031,-5.1932,-5.1912,-5.1923,-5.1919,-5.1986,-5.1993,-5.2017,-5.2132,-5.2135,-5.2035,-5.2039,-5.2042,-5.2044,0,0,0,0,0,0,0,-5.1764,-5.1778,-5.1929,-5.1885,-5.1885,-5.1871,-5.1879,-5.1954,-5.1968,-5.1914,-5.191,-5.1921,-5.1985,-5.2011,-5.2018,-5.2136,-5.2035,-5.204,-5.2045,-5.2047,-5.2349,-5.2353,0,0,0,0,0,0,-5.1759,-5.1774,-5.1926,-5.1931,-5.1816,-5.1877,-5.1887,-5.1926,-5.1967,-5.197,-5.1924,-5.1918,-5.2001,-5.2011,-5.2021,-5.2158,-5.2042,-5.2048,-5.2052,-5.2345,-5.235,-5.2355,0,0,0,0,0,0,-5.1755,-5.1773,-5.1923,-5.1852,-5.187,-5.1885,-5.1929,-5.1929,-5.1955,-5.1975,-5.1977,-5.1948,-5.1999,-5.2012,-5.2102,-5.216,-5.2051,-5.2057,-5.2341,-5.2347,-5.2353,-5.2433,0,0,0,0,0,0,-5.1749,-5.1772,-5.1816,-5.1853,-5.1874,-5.2004,-5.1933,-5.1934,-5.1967,-5.1961,-5.1998,-5.2001,-5.1997,-5.2093,-5.2109,-5.2167,-5.2062,-5.2335,-5.2343,-5.2351,-5.2425,-5.2441,-5.2455,0,0,0,0,0,-5.1742,-5.1834,-5.1819,-5.1838,-5.193,-5.2007,-5.2019,-5.2014,-5.1972,-5.2016,-5.2029,-5.2,-5.2151,-5.2102,-5.212,-5.2182,-5.2332,-5.2341,-5.235,-5.2419,-5.2438,-5.2454,0,0,0,0,0,0,-5.1802,-5.1839,-5.1822,-5.193,-5.1966,-5.1999,-5.2054,-5.2034,-5.2082,-5.2073,-5.2063,-5.2072,-5.2167,-5.2183,-5.2128,-5.2294,-5.2235,-5.2248,-5.2281,-5.2299,-5.2314,-5.2308,-5.2068,0,0,0,0,0,-5.1828,-5.189,-5.1918,-5.201,-5.2029,-5.2039,-5.2072,-5.2065,-5.2102,-5.2117,-5.2136,-5.2171,-5.2227,-5.2264,-5.2316,-5.2427,-5.2434,-5.2478,-5.2493,-5.2504,-5.2516,-5.2577,-5.2597,-5.2385,-5.2385,-5.2384,0,0,-5.1882,-5.191,-5.1949,-5.2023,-5.205,-5.2113,-5.2052,-5.2121,-5.2167,-5.2126,-5.2214,-5.223,-5.2268,-5.237,-5.2416,-5.2386,-5.2577,-5.2516,-5.2526,-5.2531,-5.2588,-5.2609,-5.2626,-5.2391,-5.239,-5.2389,0,0,-5.2013,-5.204,-5.2121,-5.215,-5.2193,-5.2199,-5.2218,-5.2254,-5.2264,-5.2352,-5.2323,-5.2377,-5.2473,-5.2502,-5.2529,-5.2673,-5.2648,-5.269,-5.2767,-5.2826,-5.2843,-5.2858,-5.291,-5.2929,-5.2701,-5.2701,-5.2701,0,-5.2074,-5.217,-5.2164,-5.2236,-5.2269,-5.2237,-5.2318,-5.2346,-5.2403,-5.2426,-5.2393,-5.2514,-5.2537,-5.2646,-5.2681,-5.2704,-5.2726,-5.2686,-5.2841,-5.2856,-5.287,-5.2919,-5.2939,-5.2706,-5.2706,-5.2705,-5.2705,0,-5.2243,-5.231,-5.2369,-5.2428,-5.2468,-5.2544,-5.2549,-5.2589,-5.2579,-5.2588,-5.2678,-5.2706,-5.2764,-5.2788,-5.2778,-5.2896,-5.2877,-5.2843,-5.2783,-5.2895,-5.2942,-5.296,-5.2713,-5.2712,-5.271,-5.2709,0,0,-5.2414,-5.247,-5.2492,-5.2519,-5.2565,-5.2615,-5.2689,-5.2748,-5.2784,-5.2824,-5.2886,-5.2968,-5.2938,-5.2969,-5.2961,-5.3013,-5.3127,-5.2973,-5.2973,-5.3001,-5.3259,-5.3286,-5.3308,-5.311,-5.3113,-5.3116,-5.3256,0,-5.2549,-5.2681,-5.2679,-5.2801,-5.2862,-5.2833,-5.2898,-5.2932,-5.2943,-5.2996,-5.3006,-5.3066,-5.302,-5.3039,-5.3089,-5.3102,-5.3178,-5.3092,-5.3167,-5.317,-5.316,-5.3332,-5.336,-5.3491,-5.3274,-5.3277,-5.328,0,-5.2724,-5.2773,-5.2902,-5.294,-5.2966,-5.3024,-5.3078,-5.3129,-5.3167,-5.3171,-5.3207,-5.3192,-5.3266,-5.3204,-5.3307,-5.3248,-5.3278,-5.3289,-5.3294,-5.3302,-5.3232,-5.3345,-5.3532,-5.3553,-5.3308,-5.3306,-5.3304,0,-5.2837,-5.2935,-5.3026,-5.3049,-5.3095,-5.3137,-5.3158,-5.3193,-5.3229,-5.3275,-5.3298,-5.3352,-5.3382,-5.3423,-5.3422,-5.3377,-5.3526,-5.3464,-5.3532,-5.3532,-5.3565,-5.3563,-5.3761,-5.3583,-5.3583,-5.3582,-5.3582,0,-5.2989,-5.3069,-5.3078,-5.3133,-5.3223,-5.3218,-5.3306,-5.3322,-5.3354,-5.3411,-5.3388,-5.3442,-5.3437,-5.3492,-5.3491,-5.3577,-5.359,-5.3595,-5.3594,-5.3598,-5.3597,-5.3618,-5.3609,-5.3588,-5.3586,-5.3585,-5.3585,0,-5.3131,-5.314,-5.3237,-5.3273,-5.3284,-5.3348,-5.3379,-5.3431,-5.344,-5.3513,-5.353,-5.3544,-5.3607,-5.361,-5.3682,-5.3681,-5.3786,-5.3774,-5.3774,-5.3772,-5.3841,-5.3835,-5.406,-5.4089,-5.3891,-5.3893,-5.3894,0,-5.3228,-5.3289,-5.3333,-5.3371,-5.3395,-5.3456,-5.3493,-5.3491,-5.353,-5.3579,-5.3626,-5.3687,-5.3736,-5.3838,-5.3853,-5.3908,-5.3898,-5.3973,-5.3906,-5.3909,-5.3901,-5.3898,-5.3904,-5.3987,-5.3989,-5.399,-5.3992,0,-5.3399,-5.34,-5.3456,-5.3513,-5.3559,-5.3603,-5.3645,-5.3676,-5.3679,-5.3724,-5.3789,-5.3828,-5.3902,-5.3963,-5.4017,-5.4037,-5.4015,-5.4013,-5.4032,-5.4037,-5.4035,-5.4038,-5.3811,-5.4008,-5.4006,-5.4005,-5.4004,-5.4004,-5.3522,-5.3576,-5.3616,-5.3678,-5.371,-5.3749,-5.3801,-5.3817,-5.3873,-5.3935,-5.3929,-5.4002,-5.4038,-5.4109,-5.4133,-5.4189,-5.4163,-5.419,-5.4197,-5.4205,-5.4213,-5.4025,-5.4199,-5.4198,-5.4198,-5.4197,-5.4197,0,-5.3693,-5.3717,-5.3775,-5.3835,-5.3884,-5.3861,-5.3906,-5.3948,-5.4013,-5.405,-5.41,-5.4175,-5.4235,-5.4255,-5.4313,-5.4354,-5.4345,-5.4369,-5.4367,-5.4372,-5.4232,-5.421,-5.4375,-5.4375,-5.4375,-5.4375,-5.4375,-5.4375,-5.3787,-5.3878,-5.3885,-5.3991,-5.4014,-5.4087,-5.4115,-5.4151,-5.4181,-5.4267,-5.4317,-5.4331,-5.4361,-5.4421,-5.4474,-5.4479,-5.4501,-5.453,-5.453,-5.4399,-5.4381,-5.4364,-5.4344,-5.4534,-5.4535,-5.4665,-5.4667,-5.4668]}]]